FW0248 Weather Reports


Display with metric or nautical units.
time (UTC)temp
F
wind
direction
speed
MPH
gust
MPH
rain 1hr
in
rain 24hr
in
rain mn
in
humidity
%
barometer
mb
20240227104201 0 0.0 0.0 0.00 0.00 0.00 1016.9
20240227103427 0 0.0 0.0 0.00 0.00 0.00 1016.6
20240227102927 0 0.0 0.0 0.00 0.00 0.00 1016.6
20240227102427 0 0.0 0.0 0.00 0.00 0.00 1016.6
20240227101926 0 0.0 0.0 0.00 0.00 0.00 1016.8
20240227101425 0 0.0 0.0 0.00 0.00 0.00 1017.0
20240227101157 0 0.0 0.0 0.00 0.00 0.00 1016.9
20240227100425 0 0.0 0.0 0.00 0.00 0.00 1016.8
20240227095925 0 0.0 0.0 0.00 0.00 0.00 1016.8
20240227095330 0 0.0 0.0 0.00 0.00 0.00 1016.9
20240227094824 0 0.0 0.0 0.00 0.00 0.00 1017.0
20240227094326 0 195 2.0 3.0 0.00 0.00 0.00 1017.0
20240227093822 0 195 2.0 3.0 0.00 0.00 0.00 1016.8
20240227093229 52 195 2.0 3.0 0.00 0.00 0.00 66 1016.8
20240227092727 52 195 2.0 3.0 0.00 0.00 0.00 66 1016.9
20240227092226 52 193 2.0 4.0 0.00 0.00 0.00 66 1017.0
20240227091958 52 193 2.0 4.0 0.00 0.00 0.00 66 1016.8
20240227091226 52 193 2.0 4.0 0.00 0.00 0.00 66 1017.0
20240227090727 52 193 2.0 4.0 0.00 0.00 0.00 66 1017.1
20240227090226 53 193 2.0 4.0 0.00 0.00 0.00 65 1017.0
20240227085726 53 193 3.0 5.0 0.00 0.00 0.00 65 1017.1
20240227085226 53 193 3.0 7.0 0.00 0.00 0.00 65 1016.9
20240227084956 52 193 3.0 7.0 0.00 0.00 0.00 65 1016.8
20240227084226 52 193 3.0 6.0 0.00 0.00 0.00 65 1016.8
20240227083725 52 193 3.0 5.0 0.00 0.00 0.00 65 1017.0
20240227083231 53 193 2.0 4.0 0.00 0.00 0.00 65 1017.2
20240227083225 53 193 2.0 5.0 0.00 0.00 0.00 65 1017.1
20240227082226 53 193 2.0 4.0 0.00 0.00 0.00 65 1017.2
20240227081726 53 193 2.0 5.0 0.00 0.00 0.00 65 1017.3
20240227081457 53 193 2.0 5.0 0.00 0.00 0.00 64 1017.2
20240227080726 53 193 2.0 4.0 0.00 0.00 0.00 65 1017.0
20240227080226 53 193 3.0 5.0 0.00 0.00 0.00 65 1017.1
20240227075725 53 193 3.0 6.0 0.00 0.00 0.00 64 1016.6
20240227075226 53 193 4.0 6.0 0.00 0.00 0.00 64 1016.4
20240227074728 53 193 4.0 6.0 0.00 0.00 0.00 65 1016.4
20240227074226 53 193 3.0 5.0 0.00 0.00 0.00 65 1016.6
20240227073727 53 193 3.0 6.0 0.00 0.00 0.00 65 1016.8
20240227073226 53 193 3.0 6.0 0.00 0.00 0.00 64 1017.0
20240227072727 53 193 3.0 6.0 0.00 0.00 0.00 64 1017.2
20240227072226 53 193 3.0 5.0 0.00 0.00 0.00 64 1017.3
20240227071726 53 193 2.0 5.0 0.00 0.00 0.00 64 1017.3
20240227071225 53 193 2.0 5.0 0.00 0.00 0.00 64 1017.4
20240227070726 53 193 2.0 3.0 0.00 0.00 0.00 64 1017.6
20240227070226 54 193 2.0 6.0 0.00 0.00 0.00 64 1017.6
20240227065726 54 193 3.0 6.0 0.00 0.00 0.00 63 1017.6
20240227065226 54 193 3.0 6.0 0.00 0.00 0.00 63 1017.7
20240227064726 54 193 3.0 6.0 0.00 0.00 0.00 63 1017.8
20240227064456 54 193 3.0 6.0 0.00 0.00 0.00 62 1017.8
20240227063725 54 193 2.0 6.0 0.00 0.00 0.00 62 1017.8
20240227063456 54 193 3.0 6.0 0.00 0.00 0.00 62 1017.7
20240227062726 55 193 3.0 6.0 0.00 0.00 0.00 62 1017.7
20240227062223 55 193 4.0 6.0 0.00 0.00 0.00 61 1017.8
20240227061724 55 193 4.0 9.0 0.00 0.00 0.00 61 1017.6
20240227061224 55 193 3.0 9.0 0.00 0.00 0.00 61 1017.6
20240227060954 55 193 3.0 7.0 0.00 0.00 0.00 61 1017.6
20240227060225 55 193 3.0 7.0 0.00 0.00 0.00 61 1017.7
20240227055723 55 193 2.0 5.0 0.00 0.00 0.00 61 1017.7
20240227055223 55 193 3.0 6.0 0.00 0.00 0.00 61 1017.7
20240227054722 55 193 3.0 9.0 0.00 0.00 0.00 61 1017.7
20240227054221 55 193 3.0 9.0 0.00 0.00 0.00 60 1017.8
20240227053722 56 193 3.0 8.0 0.00 0.00 0.00 60 1017.8
20240227053222 56 193 3.0 8.0 0.00 0.00 0.00 60 1017.7
20240227052722 56 193 3.0 5.0 0.00 0.00 0.00 60 1017.7
20240227052221 56 193 3.0 7.0 0.00 0.00 0.00 59 1017.7
20240227051722 56 193 4.0 7.0 0.00 0.00 0.00 59 1017.6
20240227051222 56 193 4.0 6.0 0.00 0.00 0.00 59 1017.7
20240227050721 56 193 3.0 7.0 0.00 0.00 0.00 59 1017.7
20240227050219 56 193 3.0 7.0 0.00 0.00 0.00 58 1017.8
20240227045720 56 193 3.0 7.0 0.00 0.00 0.00 58 1017.6
20240227045220 57 193 3.0 8.0 0.00 0.00 0.00 58 1017.6
20240227044719 57 193 4.0 11.0 0.00 0.00 0.00 58 1017.5
20240227044220 57 193 4.0 11.0 0.00 0.00 0.00 57 1017.6
20240227043720 57 194 4.0 7.0 0.00 0.00 0.00 57 1017.6
20240227043220 57 194 4.0 7.0 0.00 0.00 0.00 57 1017.7
20240227042719 57 194 4.0 12.0 0.00 0.00 0.00 57 1017.8
20240227042219 57 194 4.0 12.0 0.00 0.00 0.00 57 1017.9
20240227041720 57 193 4.0 8.0 0.00 0.00 0.00 56 1017.9
20240227041220 57 193 4.0 8.0 0.00 0.00 0.00 56 1017.9
20240227040719 57 193 3.0 7.0 0.00 0.00 0.00 55 1018.0
20240227040220 58 193 3.0 7.0 0.00 0.00 0.00 55 1018.1
20240227035721 58 193 2.0 7.0 0.00 0.00 0.00 54 1018.1
20240227035450 58 193 2.0 6.0 0.00 0.00 0.00 53 1018.3
20240227034719 58 193 3.0 6.0 0.00 0.00 0.00 52 1018.2
20240227034220 58 193 3.0 5.0 0.00 0.00 0.00 52 1018.3
20240227033721 59 193 2.0 4.0 0.00 0.00 0.00 51 1018.2
20240227033220 59 193 2.0 4.0 0.00 0.00 0.00 50 1018.2
20240227032950 59 193 2.0 4.0 0.00 0.00 0.00 50 1018.1
20240227032448 59 193 2.0 4.0 0.00 0.00 0.00 49 1018.1
20240227031949 60 193 2.0 5.0 0.00 0.00 0.00 49 1018.0
20240227031215 60 193 3.0 7.0 0.00 0.00 0.00 48 1018.1
20240227030716 60 193 3.0 8.0 0.00 0.00 0.00 48 1018.0
20240227030213 60 193 4.0 8.0 0.00 0.00 0.00 48 1018.0
20240227025713 61 193 4.0 17.0 0.00 0.00 0.00 47 1018.0
20240227025215 61 193 4.0 17.0 0.00 0.00 0.00 47 1017.8
20240227024713 61 189 4.0 7.0 0.00 0.00 0.00 47 1017.7
20240227024211 61 189 3.0 8.0 0.00 0.00 0.00 47 1017.8
20240227023711 61 189 3.0 8.0 0.00 0.00 0.00 47 1017.8
20240227023211 60 189 3.0 6.0 0.00 0.00 0.00 47 1017.8
20240227022711 61 189 3.0 8.0 0.00 0.00 0.00 46 1017.8
20240227022442 61 189 4.0 8.0 0.00 0.00 0.00 46 1017.7
20240227021711 61 189 4.0 8.0 0.00 0.00 0.00 46 1017.7
20240227021212 61 189 3.0 7.0 0.00 0.00 0.00 46 1017.7
20240227020709 61 189 3.0 8.0 0.00 0.00 0.00 45 1017.7
20240227020214 61 189 3.0 7.0 0.00 0.00 0.00 45 1017.8
20240227020209 61 189 3.0 8.0 0.00 0.00 0.00 46 1017.9
20240227015209 61 189 4.0 7.0 0.00 0.00 0.00 45 1017.8
20240227014709 61 189 3.0 6.0 0.00 0.00 0.00 45 1017.8
20240227014209 61 189 3.0 6.0 0.00 0.00 0.00 45 1017.7
20240227013711 61 189 3.0 6.0 0.00 0.00 0.00 44 1017.6
20240227013209 61 189 3.0 6.0 0.00 0.00 0.00 44 1017.5
20240227012709 61 189 3.0 5.0 0.00 0.00 0.00 44 1017.6
20240227012440 61 189 2.0 5.0 0.00 0.00 0.00 43 1017.7
20240227011707 62 189 2.0 5.0 0.00 0.00 0.00 43 1017.6
20240227011207 62 189 2.0 5.0 0.00 0.00 0.00 42 1017.5
20240227010708 62 189 2.0 4.0 0.00 0.00 0.00 42 1017.4
20240227010212 63 189 2.0 3.0 0.00 0.00 0.00 41 1017.3
20240227010208 62 189 2.0 4.0 0.00 0.00 0.00 42 1017.4
20240227005207 63 189 2.0 5.0 0.00 0.00 0.00 41 1017.2
20240227004707 63 189 2.0 5.0 0.00 0.00 0.00 41 1017.2
20240227004208 64 189 2.0 5.0 0.00 0.00 0.00 41 1017.1
20240227003707 64 189 2.0 5.0 0.00 0.00 0.00 40 1017.0
20240227003207 64 189 2.0 4.0 0.00 0.00 0.00 40 1017.1
20240227002706 64 189 2.0 6.0 0.00 0.00 0.00 41 1017.0
20240227002207 64 189 2.0 6.0 0.00 0.00 0.00 41 1017.0
20240227001705 64 189 1.0 3.0 0.00 0.00 0.00 41 1017.1
20240227001205 64 189 1.0 3.0 0.00 0.00 0.00 41 1017.1
20240227000705 64 189 1.0 2.0 0.00 0.00 0.00 40 1017.1
20240227000205 65 189 1.0 3.0 0.00 0.00 0.00 40 1017.0
20240226235704 65 189 2.0 3.0 0.00 0.00 0.00 39 1017.0
20240226235205 66 189 2.0 3.0 0.00 0.00 0.00 39 1016.8
20240226234705 66 189 2.0 4.0 0.00 0.00 0.00 38 1016.8
20240226234438 66 189 2.0 4.0 0.00 0.00 0.00 38 1016.7
20240226233702 66 189 2.0 4.0 0.00 0.00 0.00 38 1016.7
20240226233203 67 189 2.0 7.0 0.00 0.00 0.00 38 1016.7
20240226232703 67 189 2.0 7.0 0.00 0.00 0.00 37 1016.6
20240226232434 67 189 2.0 5.0 0.00 0.00 0.00 38 1016.6
20240226231703 67 189 2.0 5.0 0.00 0.00 0.00 37 1016.7
20240226231202 68 189 2.0 5.0 0.00 0.00 0.00 37 1016.6
20240226230934 68 189 2.0 6.0 0.00 0.00 0.00 37 1016.6
20240226230204 68 189 4.0 7.0 0.00 0.00 0.00 37 1016.6
20240226225703 69 189 4.0 7.0 0.00 0.00 0.00 36 1016.6
20240226225202 69 189 2.0 6.0 0.00 0.00 0.00 36 1016.5
20240226224701 69 189 3.0 8.0 0.00 0.00 0.00 36 1016.5
20240226224201 69 189 4.0 8.0 0.00 0.00 0.00 36 1016.4
20240226223659 69 189 4.0 8.0 0.00 0.00 0.00 36 1016.5
20240226223429 69 189 3.0 8.0 0.00 0.00 0.00 35 1016.3
20240226223305 70 189 2.0 7.0 0.00 0.00 0.00 34 1016.3
20240226222158 70 189 2.0 8.0 0.00 0.00 0.00 34 1016.2
20240226221703 70 189 3.0 8.0 0.00 0.00 0.00 33 1016.4
20240226221659 70 189 3.0 8.0 0.00 0.00 0.00 34 1016.2
20240226220658 70 189 4.0 9.0 0.00 0.00 0.00 33 1016.3
20240226220440 70 189 4.0 9.0 0.00 0.00 0.00 32 1016.3
20240226215930 71 189 3.0 8.0 0.00 0.00 0.00 32 1016.4
20240226215429 71 188 2.0 8.0 0.00 0.00 0.00 32 1016.4
20240226214657 71 189 2.0 8.0 0.00 0.00 0.00 32 1016.5
20240226214159 71 188 3.0 8.0 0.00 0.00 0.00 32 1016.5
20240226213657 71 188 2.0 6.0 0.00 0.00 0.00 32 1016.5
20240226213156 71 188 2.0 8.0 0.00 0.00 0.00 32 1016.4
20240226212658 71 188 4.0 9.0 0.00 0.00 0.00 31 1016.6
20240226212157 71 189 4.0 9.0 0.00 0.00 0.00 31 1016.5
20240226211656 71 188 4.0 11.0 0.00 0.00 0.00 31 1016.6
20240226211155 72 188 3.0 11.0 0.00 0.00 0.00 31 1016.6
20240226210654 72 186 2.0 8.0 0.00 0.00 0.00 31 1016.6
20240226210154 72 186 3.0 13.0 0.00 0.00 0.00 31 1016.7
20240226205655 72 186 3.0 13.0 0.00 0.00 0.00 31 1016.8
20240226205152 73 181 2.0 8.0 0.00 0.00 0.00 30 1016.8
20240226204652 73 181 4.0 12.0 0.00 0.00 0.00 31 1016.8
20240226204154 73 181 4.0 12.0 0.00 0.00 0.00 30 1016.7
20240226203653 73 176 3.0 10.0 0.00 0.00 0.00 30 1016.9
20240226203153 73 174 4.0 11.0 0.00 0.00 0.00 31 1016.9
20240226202652 73 172 4.0 11.0 0.00 0.00 0.00 30 1016.9
20240226202152 73 176 3.0 12.0 0.00 0.00 0.00 30 1017.1
20240226201653 73 179 3.0 12.0 0.00 0.00 0.00 30 1017.1
20240226201154 74 179 2.0 8.0 0.00 0.00 0.00 30 1017.2
20240226200652 74 180 2.0 8.0 0.00 0.00 0.00 31 1017.2
20240226200153 73 180 3.0 11.0 0.00 0.00 0.00 30 1017.3
20240226195652 74 182 3.0 11.0 0.00 0.00 0.00 30 1017.3
20240226195153 74 179 2.0 9.0 0.00 0.00 0.00 31 1017.3
20240226194650 74 179 2.0 9.0 0.00 0.00 0.00 30 1017.5
20240226194151 74 180 2.0 6.0 0.00 0.00 0.00 31 1017.4
20240226193650 73 180 2.0 6.0 0.00 0.00 0.00 31 1017.6
20240226193150 73 180 4.0 11.0 0.00 0.00 0.00 31 1017.6
20240226192650 72 180 5.0 11.0 0.00 0.00 0.00 32 1017.8
20240226192151 73 184 3.0 10.0 0.00 0.00 0.00 32 1017.7
20240226191651 73 184 2.0 8.0 0.00 0.00 0.00 32 1017.8
20240226191151 74 184 2.0 8.0 0.00 0.00 0.00 31 1017.8
20240226190651 73 184 3.0 8.0 0.00 0.00 0.00 33 1017.8
20240226190150 73 184 2.0 6.0 0.00 0.00 0.00 32 1017.9
20240226185650 73 184 3.0 10.0 0.00 0.00 0.00 32 1018.0
20240226185151 72 184 4.0 10.0 0.00 0.00 0.00 32 1018.1
20240226184652 72 186 4.0 10.0 0.00 0.00 0.00 32 1018.2
20240226184152 73 189 3.0 9.0 0.00 0.00 0.00 32 1018.2
20240226183921 73 190 2.0 6.0 0.00 0.00 0.00 32 1018.3
20240226183151 73 190 2.0 8.0 0.00 0.00 0.00 32 1018.4
20240226182650 72 190 3.0 8.0 0.00 0.00 0.00 34 1018.6
20240226182151 72 190 3.0 8.0 0.00 0.00 0.00 33 1018.6
20240226181650 71 190 4.0 8.0 0.00 0.00 0.00 34 1018.7
20240226181151 71 190 4.0 10.0 0.00 0.00 0.00 33 1018.7
20240226180651 72 191 2.0 10.0 0.00 0.00 0.00 33 1018.8
20240226180150 73 195 2.0 7.0 0.00 0.00 0.00 34 1018.8
20240226175650 72 195 2.0 8.0 0.00 0.00 0.00 35 1018.9
20240226175151 71 195 2.0 8.0 0.00 0.00 0.00 35 1018.9
20240226174648 71 195 2.0 8.0 0.00 0.00 0.00 35 1019.0
20240226174148 71 195 2.0 8.0 0.00 0.00 0.00 35 1019.2
20240226173648 70 198 2.0 9.0 0.00 0.00 0.00 36 1019.3
20240226173148 70 198 3.0 9.0 0.00 0.00 0.00 37 1019.5
20240226172648 70 198 2.0 10.0 0.00 0.00 0.00 36 1019.6
20240226172148 71 198 1.0 10.0 0.00 0.00 0.00 36 1019.6
20240226171648 71 198 1.0 5.0 0.00 0.00 0.00 37 1019.7
20240226171150 70 198 2.0 5.0 0.00 0.00 0.00 38 1019.8
20240226170917 69 198 2.0 7.0 0.00 0.00 0.00 39 1019.9
20240226170146 68 198 2.0 7.0 0.00 0.00 0.00 39 1020.0
20240226165644 69 198 1.0 4.0 0.00 0.00 0.00 40 1020.0
20240226165144 67 198 2.0 5.0 0.00 0.00 0.00 41 1020.1
20240226164644 66 198 2.0 5.0 0.00 0.00 0.00 42 1020.1
20240226164142 66 198 2.0 12.0 0.00 0.00 0.00 42 1020.2
20240226163645 65 198 2.0 6.0 0.00 0.00 0.00 43 1020.2
20240226163641 65 198 2.0 12.0 0.00 0.00 0.00 41 1020.3
20240226162641 65 198 2.0 8.0 0.00 0.00 0.00 44 1020.3
20240226162411 64 198 3.0 8.0 0.00 0.00 0.00 44 1020.4
20240226161640 63 198 3.0 8.0 0.00 0.00 0.00 44 1020.3
20240226161139 63 198 2.0 6.0 0.00 0.00 0.00 45 1020.4
20240226160637 62 198 3.0 6.0 0.00 0.00 0.00 45 1020.4
20240226160136 62 198 3.0 9.0 0.00 0.00 0.00 46 1020.5
20240226155636 61 198 3.0 9.0 0.00 0.00 0.00 46 1020.5
20240226155406 61 200 4.0 9.0 0.00 0.00 0.00 46 1020.5
20240226154642 60 200 4.0 8.0 0.00 0.00 0.00 46 1020.6
20240226154638 61 199 3.0 9.0 0.00 0.00 0.00 46 1020.5
20240226153636 60 199 4.0 11.0 0.00 0.00 0.00 47 1020.5
20240226153409 60 199 5.0 11.0 0.00 0.00 0.00 46 1020.6
20240226152636 59 189 4.0 10.0 0.00 0.00 0.00 46 1020.6
20240226152136 60 186 3.0 7.0 0.00 0.00 0.00 47 1020.8
20240226151635 59 186 3.0 7.0 0.00 0.00 0.00 46 1020.8
20240226151133 59 186 3.0 7.0 0.00 0.00 0.00 47 1020.8
20240226150907 59 186 2.0 7.0 0.00 0.00 0.00 48 1020.9
20240226150134 59 186 2.0 7.0 0.00 0.00 0.00 47 1020.8
20240226145634 58 185 2.0 7.0 0.00 0.00 0.00 48 1020.9
20240226145134 57 186 3.0 9.0 0.00 0.00 0.00 50 1020.9
20240226144634 57 185 3.0 9.0 0.00 0.00 0.00 49 1020.8
20240226144404 57 181 2.0 7.0 0.00 0.00 0.00 49 1020.8
20240226143634 57 181 2.0 7.0 0.00 0.00 0.00 49 1020.8
20240226143134 56 181 3.0 7.0 0.00 0.00 0.00 49 1020.8
20240226142635 55 181 3.0 7.0 0.00 0.00 0.00 51 1020.9
20240226142132 55 181 3.0 7.0 0.00 0.00 0.00 51 1020.9
20240226141632 54 181 3.0 7.0 0.00 0.00 0.00 51 1020.9
20240226141403 54 180 3.0 6.0 0.00 0.00 0.00 53 1020.9
20240226140628 53 180 2.0 5.0 0.00 0.00 0.00 54 1021.0
20240226140129 53 180 3.0 6.0 0.00 0.00 0.00 55 1021.0
20240226135629 52 180 3.0 6.0 0.00 0.00 0.00 56 1021.0
20240226135129 51 179 3.0 5.0 0.00 0.00 0.00 58 1021.0
20240226134901 51 179 3.0 5.0 0.00 0.00 0.00 58 1020.9
20240226134129 50 179 2.0 5.0 0.00 0.00 0.00 58 1020.9
20240226133629 50 179 2.0 5.0 0.00 0.00 0.00 58 1020.8
20240226133129 49 179 2.0 5.0 0.00 0.00 0.00 59 1020.8
20240226132629 49 179 2.0 6.0 0.00 0.00 0.00 61 1020.8
20240226132128 48 179 3.0 6.0 0.00 0.00 0.00 61 1020.8
20240226131627 47 179 2.0 5.0 0.00 0.00 0.00 62 1020.7
20240226131127 47 179 2.0 5.0 0.00 0.00 0.00 62 1020.6
20240226130628 47 179 2.0 5.0 0.00 0.00 0.00 63 1020.6
20240226130126 46 179 1.0 5.0 0.00 0.00 0.00 63 1020.7
20240226125624 0 179 1.0 2.0 0.00 0.00 0.00 1020.6
20240226125128 0 0.0 0.0 0.00 0.00 0.00 1020.7
20240226124626 0 0.0 0.0 0.00 0.00 0.00 1020.7
20240226124125 0 0.0 0.0 0.00 0.00 0.00 1020.6
20240226123527 0 0.0 0.0 0.00 0.00 0.00 1020.6
20240226123030 0 0.0 0.0 0.00 0.00 0.00 1020.6
20240226122745 0 0.0 0.0 0.00 0.00 0.00 1020.6
20240226121923 0 0.0 0.0 0.00 0.00 0.00 1020.6
20240226121328 0 0.0 0.0 0.00 0.00 0.00 1020.5
20240226120734 0 0.0 0.0 0.00 0.00 0.00 1020.5
20240226120222 0 0.0 0.0 0.00 0.00 0.00 1020.7
20240226115720 0 0.0 0.0 0.00 0.00 0.00 1020.7
20240226115125 0 0.0 0.0 0.00 0.00 0.00 1020.6
20240226114852 0 0.0 0.0 0.00 0.00 0.00 1020.6
20240226114029 0 0.0 0.0 0.00 0.00 0.00 1020.6
20240226113528 0 0.0 0.0 0.00 0.00 0.00 1020.6
20240226113027 0 0.0 0.0 0.00 0.00 0.00 1020.6
20240226112529 0 0.0 0.0 0.00 0.00 0.00 1020.5
20240226112258 0 0.0 0.0 0.00 0.00 0.00 1020.4
20240226111528 0 0.0 0.0 0.00 0.00 0.00 1020.7
20240226111030 0 0.0 0.0 0.00 0.00 0.00 1020.6
20240226110520 0 0.0 0.0 0.00 0.00 0.00 1020.7
20240226105930 0 0.0 0.0 0.00 0.00 0.00 1020.7
20240226105424 0 0.0 0.0 0.00 0.00 0.00 1020.6
20240226104832 0 0.0 0.0 0.00 0.00 0.00 1020.6